星链-37542(STARLINK-37542)

导读

STARLINK-37542(NORAD编号68917)是美国SpaceX公司星链(Starlink)卫星互联网星座的一颗低轨通信卫星。作为星链大规模组网的组成部分,它运行在近地轨道(LEO),属于星链第二代组网批次,旨在为全球提供高速低延迟宽带互联网服务,尤其覆盖地面基础设施难以到达的偏远地区、海洋和空域。该卫星采用可自动离轨设计,任务结束后会再入大气层销毁,减少太空垃圾。星链项目目前已部署数千颗卫星,计划最终组网超四万颗,在民用通信之外也服务于应急通信和军事应用,但引发了天文观测和太空拥堵争议。

基本信息
目录编号:
68917
目录名称:
STARLINK-37542
国际标识:
2026-097Y
轨道中心:
EARTH
卫星名称:
星链-37542
卫星全名:
星链-37542(STARLINK-37542)
卫星状态:
在轨 (已飞行135 天)
发射日期:
2026-04-30 UTC
国别 :
美国 (US)
星等 :
--
该卫星已列入 空间交会检测服务 Space Conjunction Data Service (SCDS) ,当前飞行风险评估等级: 无高风险
轨道信息
数据来源 国际轨道数据
星历时间: 2026-09-11T21:09:41+0800
18小时前
查看轨道信息
半长轴: 6843.666km
偏心率: 0.0001627
轨道倾角: 97.285°
近地点辐角 84.704°
升交点赤经 88.872°
平近点角 275.439°
近地点: 464.415km
远地点: 466.643km
周期: 93.906分钟
每日圈数: 15.3345
详细信息
固有亮度:
5
最大亮度:
2.5
卫星平台:
Starlink V1.0
覆盖范围:
全球
运营商:
太空探索技术公司
运营商所在国:
美国
制造商(研发单位):
太空探索技术公司
制造商所在国:
美国
使用方式:
暂无
卫星简介
Starlink 计划是 SpaceX 推出的全球卫星互联网项目,通过发射低轨道卫星,为全球尤其是偏远地区提供高速、低延迟的互联网服务。自 2019 年起,Starlink 已部署数千颗卫星,旨在缩小全球数字鸿沟,推动互联网普及。该项目还为军事、航空等行业提供通信支持,带来广泛经济效益。
2D轨道图
3D轨道图
轨道高度分析图
轨道倾角分析图
轨道综合分析图
查看轨道综合分析图
交会数据列表
事件ID 空间交会对象 最接近时刻(TCA) 交会距离 交会风险概率(CRP) 交会风险指数(CRI) 操作
CDM_260913-051104-649506-891722
SALSAT (46495)
2026-09-13T
05:11:12+0000
1.607 km
极远距离
5.446274E-6 低风险 0.5
CDM_260914-014005-227306-891722
2026-09-14T
01:40:09+0000
2.690 km
极远距离
1.475964E-6 低风险 0.38
CDM_260914-090506-013006-891721
2026-09-14T
09:05:02+0000
2.833 km
极远距离
1.390155E-6 低风险 0.38
CDM_260914-121105-196306-891721
2026-09-14T
12:11:40+0000
2.986 km
极远距离
1.265289E-6 低风险 0.37
CDM_260914-071005-256406-891721
2026-09-14T
07:10:05+0000
2.958 km
极远距离
1.15462E-6 低风险 0.36
与全量物体交会距离演化趋势
与全量物体交会风险概率演化趋势